{"data":{"norad_id":48124,"epoch":"2026-05-24T13:22:21.476928Z","epoch_age_seconds":127015,"freshness":"FRESH","line1":"1 48124U 21027AJ  26144.55719302  .00000950  00000+0  42372-4 0  9995","line2":"2 48124  53.1587 162.1039 0001272  90.0400 270.0747 15.31706362284271","mean_motion":15.31706362,"eccentricity":0.0001272,"inclination_deg":53.1587,"raan_deg":162.1039,"arg_perigee_deg":90.04,"mean_anomaly_deg":270.0747,"bstar":4.2372e-5,"rev_number":28427,"period_min":94.012797473776,"perigee_km":469.84985575886,"apogee_km":471.59220524182,"semimajor_km":6848.8580305003,"source":"CELESTRAK","updated_at":"2026-05-25T13:38:16.646633Z"}}